Home   Weather   Swindon   Past weeks

Flag for United Kingdom Past Weather in Swindon, England, United Kingdom — Yesterday and Last 2 Weeks

Now
45 °F

Scattered showers. Broken clouds.


Feels Like: 38 °F
Forecast: 31 / 51 °F
Wind: 15 mph from North

Location: Brize Norton

Current Time: Apr 26, 2017 at 7:09:24 pm

Latest Report: Apr 26, 2017 at 5:50 pm


Visibility: N/A

Pressure: 30.09 "Hg

Humidity: 61%

Dew Point: 32 °F

Location of SwindonLocation

Past Weather in Swindon — Graph

°F

Swindon Temperature Yesterday

Maximum temperature yesterday: 50 °F (at 2:50 pm)
Minimum temperature yesterday: 30 °F (at 5:50 am)
Average temperature yesterday: 40 °F

High & Low Weather Summary for the Past Weeks

 TemperatureHumidityPressure
High61 °F (Apr 12, 2:50 pm)100% (Apr 20, 10:50 am)30.63 "Hg (Apr 20, 10:50 am)
Low30 °F (Apr 25, 5:50 am)31% (Apr 19, 2:50 pm)29.92 "Hg (Apr 24, 3:50 pm)
Average48 °F68%30.23 "Hg
* Reported Apr 11 5:50 pm — Apr 26 5:50 pm, Swindon, Weather by CustomWeather, © 2017

Note: Actual official high and low records may vary slightly from our data, if they occured in-between our weather recording intervals... More about our weather records

Advertising

Swindon Weather History for the Previous 24 Hours

Scroll right to see more
 ConditionsComfort  
Time TempWeatherWind HumidityBarometerVisibility
5:50 pm
Wed, Apr 26
45 °FScattered showers. Broken clouds.15 mph61%30.09 "HgN/A
4:50 pm46 °FScattered showers. Partly sunny.13 mph62%30.09 "HgN/A
3:50 pm46 °FScattered clouds.2 mph57%30.09 "HgN/A
2:50 pm48 °FScattered showers. Scattered clouds.17 mph50%30.07 "HgN/A
1:50 pm48 °FSprinkles. Scattered clouds.13 mph54%30.09 "HgN/A
12:50 pm46 °FScattered clouds.14 mph53%30.09 "HgN/A
11:50 am45 °FBroken clouds.12 mph66%30.09 "HgN/A
10:50 am43 °FBroken clouds.13 mph61%30.09 "HgN/A
9:50 am43 °FBroken clouds.15 mph66%30.07 "HgN/A
8:50 am41 °FScattered clouds.14 mph76%30.07 "HgN/A
7:50 am39 °FScattered clouds.15 mph75%30.07 "HgN/A
6:50 am37 °FScattered clouds.9 mph81%30.04 "HgN/A
5:50 am37 °FPartly sunny.10 mph81%30.04 "HgN/A
4:50 am36 °FPassing clouds.10 mph87%30.01 "HgN/A
3:50 am37 °FPassing clouds.9 mph81%30.01 "HgN/A
2:50 am36 °FPassing clouds.10 mph87%30.01 "HgN/A
1:50 am34 °FPassing clouds.7 mph93%30.04 "HgN/A
12:50 am36 °FClear.8 mph87%30.04 "Hg10 mi
11:50 pm
Tue, Apr 25
36 °FPassing clouds.6 mph93%30.01 "HgN/A
10:50 pm36 °FClear.9 mph93%30.01 "Hg10 mi
9:50 pm37 °FClear.8 mph87%30.01 "Hg10 mi
8:50 pm36 °FPassing clouds.8 mph93%29.98 "HgN/A
7:50 pm39 °FScattered clouds.12 mph81%29.98 "HgN/A
Weather by CustomWeather, © 2017

See weather overviewHow to use our weather pages